ZHONGXING-1E

Last updated on Wed Jul 09 2025 00:02:47 GMT+0000 (Coordinated Universal Time)

1 53813U 22112A 25189.61403434 -.00000134 00000+0 00000+0 0 9995 2 53813 0.0488 202.3496 0000216 11.1268 15.8093 1.00272467 10406
UTC large
Height (km)
Speed (km/s)
/
Latitude / Longitude
Inclination (degrees)
Orbital Period (minutes)
Azimuth
Elevation
Range (km)
Doppler Factor

Next 0 passes for location: London (51.5072 / 0.1276)

Sorry there are no passes over London.